• In Slovakia
  • List of Countries
  • For 7 days
  • Water Temperature
  • Satellite Maps
  • Weather Map
  • Weather Widgets
  • user-avatar
    Login

    Hourly Weather Starzyny

    Today, 20 October, Saturday

    Time Temperature Precipitation Wind Pressure Humidity
    00:00 +11°C° 0 mm 1 mps 758 mmHg 75%
    01:00 +9°C° 0 mm 0 mps 758 mmHg 75%
    02:00 +9°C° 0 mm 0 mps 758 mmHg 75%
    03:00 +9°C° 0 mm 0 mps 758 mmHg 76%
    04:00 +9°C° 0 mm 0 mps 758 mmHg 76%
    05:00 +9°C° 0 mm 0 mps 758 mmHg 76%
    06:00 +10°C° 0 mm 0 mps 758 mmHg 77%
    07:00 +11°C° 0 mm 1 mps 758 mmHg 77%
    08:00 +11°C° 0.1 mm 1 mps 759 mmHg 76%
    09:00 +12°C° 0.1 mm 1 mps 759 mmHg 76%
    10:00 +12°C° 0.1 mm 2 mps 759 mmHg 76%
    11:00 +13°C° 0.1 mm 2 mps 759 mmHg 74%
    12:00 +13°C° 0.1 mm 2 mps 758 mmHg 72%
    13:00 +12°C° 0.1 mm 3 mps 758 mmHg 70%
    14:00 +12°C° 0.1 mm 3 mps 758 mmHg 69%
    15:00 +12°C° 0.1 mm 3 mps 758 mmHg 68%
    16:00 +12°C° 0.1 mm 3 mps 758 mmHg 66%
    17:00 +11°C° 0.1 mm 3 mps 758 mmHg 67%
    18:00 +11°C° 0.1 mm 3 mps 758 mmHg 67%
    19:00 +10°C° 0.1 mm 3 mps 759 mmHg 68%
    20:00 +10°C° 0.1 mm 3 mps 759 mmHg 71%
    21:00 +9°C° 0.1 mm 3 mps 759 mmHg 73%
    22:00 +9°C° 0.1 mm 3 mps 759 mmHg 76%
    23:00 +9°C° 0.1 mm 3 mps 759 mmHg 78%

    Tomorrow, 21 October, Sunday

    Time Temperature Precipitation Wind Pressure Humidity
    00:00 +8°C° 0.1 mm 3 mps 759 mmHg 80%
    01:00 +8°C° 0.1 mm 3 mps 759 mmHg 82%
    02:00 +7°C° 0 mm 3 mps 759 mmHg 84%
    03:00 +7°C° 0 mm 2 mps 759 mmHg 87%
    04:00 +6°C° 0 mm 2 mps 759 mmHg 89%
    05:00 +6°C° 0 mm 2 mps 759 mmHg 90%
    06:00 +6°C° 0 mm 2 mps 760 mmHg 90%
    07:00 +6°C° 0 mm 2 mps 760 mmHg 91%
    08:00 +7°C° 0 mm 2 mps 760 mmHg 84%
    09:00 +9°C° 0 mm 2 mps 760 mmHg 76%
    10:00 +10°C° 0 mm 2 mps 761 mmHg 69%
    11:00 +12°C° 0 mm 2 mps 761 mmHg 65%
    12:00 +13°C° 0 mm 1 mps 760 mmHg 61%
    13:00 +14°C° 0 mm 1 mps 760 mmHg 56%
    14:00 +13°C° 0 mm 1 mps 760 mmHg 58%
    15:00 +13°C° 0 mm 1 mps 760 mmHg 60%
    16:00 +12°C° 0 mm 1 mps 760 mmHg 62%
    17:00 +12°C° 0 mm 1 mps 760 mmHg 66%
    18:00 +10°C° 0 mm 0 mps 760 mmHg 70%
    19:00 +9°C° 0 mm 0 mps 760 mmHg 73%
    20:00 +8°C° 0 mm 0 mps 760 mmHg 75%
    21:00 +9°C° 0 mm 1 mps 761 mmHg 76%
    22:00 +9°C° 0 mm 1 mps 761 mmHg 78%
    23:00 +8°C° 0 mm 1 mps 760 mmHg 79%

    Day after tomorrow, 22 October, Monday

    Time Temperature Precipitation Wind Pressure Humidity
    00:00 +8°C° 0 mm 1 mps 760 mmHg 81%
    01:00 +8°C° 0 mm 1 mps 760 mmHg 82%
    02:00 +7°C° 0 mm 1 mps 760 mmHg 84%
    03:00 +7°C° 0 mm 1 mps 760 mmHg 85%
    04:00 +7°C° 0 mm 1 mps 759 mmHg 86%
    05:00 +7°C° 0 mm 1 mps 759 mmHg 87%
    06:00 +7°C° 0 mm 1 mps 759 mmHg 87%
    07:00 +7°C° 0 mm 1 mps 759 mmHg 88%
    08:00 +8°C° 0 mm 1 mps 759 mmHg 81%
    09:00 +9°C° 0 mm 2 mps 759 mmHg 74%
    10:00 +12°C° 0 mm 2 mps 759 mmHg 67%
    11:00 +12°C° 0 mm 2 mps 759 mmHg 63%
    12:00 +13°C° 0 mm 2 mps 758 mmHg 59%
    13:00 +14°C° 0 mm 2 mps 758 mmHg 55%
    14:00 +14°C° 0 mm 2 mps 757 mmHg 57%
    15:00 +13°C° 0 mm 2 mps 757 mmHg 59%
    16:00 +13°C° 0 mm 2 mps 757 mmHg 62%
    17:00 +12°C° 0 mm 2 mps 757 mmHg 65%
    18:00 +10°C° 0 mm 2 mps 757 mmHg 69%
    19:00 +9°C° 0 mm 2 mps 757 mmHg 73%
    20:00 +9°C° 0.3 mm 3 mps 757 mmHg 76%
    21:00 +8°C° 0.3 mm 3 mps 757 mmHg 79%
    22:00 +7°C° 0.3 mm 4 mps 757 mmHg 83%
    23:00 +7°C° 0.6 mm 4 mps 757 mmHg 83%

    23 October, Tuesday

    Time Temperature Precipitation Wind Pressure Humidity
    00:00 +7°C° 0.6 mm 4 mps 757 mmHg 82%
    01:00 +7°C° 0.6 mm 4 mps 757 mmHg 82%
    02:00 +7°C° 0.2 mm 4 mps 757 mmHg 80%
    03:00 +6°C° 0.2 mm 4 mps 757 mmHg 78%
    04:00 +6°C° 0.2 mm 4 mps 757 mmHg 75%
    05:00 +6°C° 0 mm 4 mps 757 mmHg 78%
    06:00 +5°C° 0 mm 4 mps 757 mmHg 81%
    07:00 +4°C° 0 mm 4 mps 757 mmHg 83%
    08:00 +5°C° 0 mm 4 mps 757 mmHg 77%
    09:00 +7°C° 0 mm 5 mps 757 mmHg 71%
    10:00 +8°C° 0 mm 5 mps 757 mmHg 65%
    11:00 +8°C° 0 mm 6 mps 756 mmHg 62%
    12:00 +9°C° 0 mm 6 mps 756 mmHg 60%
    13:00 +9°C° 0 mm 7 mps 755 mmHg 57%
    14:00 +9°C° 0.1 mm 7 mps 754 mmHg 60%
    15:00 +7°C° 0.1 mm 8 mps 753 mmHg 63%
    16:00 +7°C° 0.1 mm 8 mps 752 mmHg 66%
    17:00 +7°C° 0.6 mm 9 mps 750 mmHg 69%
    18:00 +7°C° 0.6 mm 10 mps 749 mmHg 73%
    19:00 +6°C° 0.6 mm 11 mps 748 mmHg 77%
    20:00 +6°C° 1.6 mm 11 mps 746 mmHg 78%
    21:00 +7°C° 1.6 mm 12 mps 745 mmHg 80%
    22:00 +7°C° 1.6 mm 12 mps 743 mmHg 82%
    23:00 +8°C° 1.3 mm 12 mps 742 mmHg 83%

    24 October, Wednesday

    Time Temperature Precipitation Wind Pressure Humidity
    00:00 +9°C° 1.3 mm 12 mps 741 mmHg 83%
    01:00 +9°C° 1.3 mm 12 mps 740 mmHg 83%
    02:00 +9°C° 0.7 mm 12 mps 740 mmHg 80%
    03:00 +9°C° 0.7 mm 11 mps 740 mmHg 77%
    04:00 +9°C° 0.7 mm 10 mps 740 mmHg 74%
    05:00 +8°C° 0.1 mm 10 mps 740 mmHg 75%
    06:00 +8°C° 0.1 mm 9 mps 741 mmHg 76%
    07:00 +7°C° 0.1 mm 8 mps 742 mmHg 78%
    08:00 +7°C° 0.1 mm 9 mps 742 mmHg 72%
    09:00 +8°C° 0.1 mm 10 mps 743 mmHg 66%
    10:00 +8°C° 0.1 mm 10 mps 744 mmHg 60%
    11:00 +8°C° 0 mm 10 mps 744 mmHg 55%
    12:00 +8°C° 0 mm 10 mps 744 mmHg 50%
    13:00 +8°C° 0 mm 10 mps 745 mmHg 44%
    14:00 +9°C° 0 mm 8 mps 745 mmHg 45%
    15:00 +8°C° 0 mm 7 mps 746 mmHg 46%
    16:00 +8°C° 0 mm 6 mps 746 mmHg 47%
    17:00 +7°C° 0 mm 6 mps 746 mmHg 48%
    18:00 +6°C° 0 mm 5 mps 747 mmHg 50%
    19:00 +5°C° 0 mm 5 mps 747 mmHg 51%
    20:00 +5°C° 0 mm 5 mps 748 mmHg 52%
    21:00 +5°C° 0 mm 5 mps 748 mmHg 54%
    22:00 +5°C° 0 mm 5 mps 748 mmHg 55%
    23:00 +5°C° 0 mm 5 mps 748 mmHg 60%

    25 October, Thursday

    Time Temperature Precipitation Wind Pressure Humidity
    00:00 +5°C° 0 mm 5 mps 748 mmHg 65%
    01:00 +5°C° 0 mm 5 mps 749 mmHg 70%
    02:00 +5°C° 0 mm 5 mps 749 mmHg 75%
    03:00 +4°C° 0 mm 4 mps 748 mmHg 80%
    04:00 +4°C° 0 mm 4 mps 748 mmHg 86%
    05:00 +3°C° 0 mm 5 mps 748 mmHg 86%
    06:00 +5°C° 0 mm 5 mps 748 mmHg 86%
    07:00 +5°C° 0 mm 6 mps 747 mmHg 87%
    08:00 +6°C° 0.2 mm 7 mps 747 mmHg 86%
    09:00 +7°C° 0.2 mm 8 mps 746 mmHg 85%
    10:00 +10°C° 0.2 mm 9 mps 745 mmHg 84%
    11:00 +10°C° 0.1 mm 9 mps 745 mmHg 80%
    12:00 +9°C° 0.1 mm 10 mps 745 mmHg 76%
    13:00 +8°C° 0.1 mm 10 mps 744 mmHg 73%
    14:00 +8°C° 0.1 mm 10 mps 744 mmHg 73%
    15:00 +8°C° 0.1 mm 10 mps 744 mmHg 74%
    16:00 +8°C° 0.1 mm 9 mps 744 mmHg 75%
    17:00 +8°C° 0.1 mm 9 mps 744 mmHg 74%
    18:00 +8°C° 0.1 mm 9 mps 744 mmHg 74%
    19:00 +8°C° 0.1 mm 9 mps 744 mmHg 74%
    20:00 +8°C° 0.2 mm 9 mps 743 mmHg 76%
    21:00 +8°C° 0.2 mm 10 mps 743 mmHg 77%
    22:00 +8°C° 0.2 mm 10 mps 743 mmHg 79%
    23:00 +8°C° 0.5 mm 11 mps 743 mmHg 77%
    Show more